Location: Sungai Laei
(2.6000°N, 113.7167°E)
Time: 11:44:24
(UTC+00:00)

Cosmos 2218 Rocket - Pass Details

Date: 22 May 2022
Orbit: 956 x 1005 km, 82.9° (Epoch: 06 July)

Event Time Altitude Azimuth Distance (km) Brightness Sun altitude
Rises 21:04:50 0° 341° (NNW) 3,671 7.1 -17.0°
Reaches altitude 10° 21:07:30 10° 334° (NNW) 2,733 6.3 -16.4°
Maximum altitude 21:13:15 39° 267° (W) 1,449 4.4 -15.1°
Drops below altitude 10° 21:19:06 10° 200° (SSW) 2,767 6.0 -13.7°
Sets 21:21:49 0° 193° (SSW) 3,723 6.7 -13.1°
